Location: Unspecified
(22.6800°N, 112.2000°E)
Time: 09:29:36
(UTC+08:00)

S-56A Canister/Altair - Pass Details

Date: 26 July 2021
Orbit: 632 x 2500 km, 38.9° (Epoch: 27 September)

Event Time Altitude Azimuth Distance (km) Brightness Sun altitude
Rises 01:29:47 0° 292° (WNW) 4,968 11.7 -46.0°
Enters shadow 01:31:40 - 288° (WNW) 4,389 11.4 -45.8°
Reaches altitude 10° 01:34:12 10° 281° (W) 3,621 - -45.6°
Maximum altitude 01:40:53 24° 231° (SW) 2,169 - -45.1°
Drops below altitude 10° 01:45:53 10° 179° (S) 2,629 - -44.7°
Sets 01:48:34 0° 164° (SSE) 3,363 - -44.4°
